This is the latest recevied weather packets stored in our database for station/object K4ZZR. If no packets are shown the sender has not sent any weather packets the latest 10 day(s).
| Time | Temp. | Humidity | Pressure | Rain* | Wind** | Luminosity | Snow |
|---|---|---|---|---|---|---|---|
| 1777941643 | 23.89° C | 80% | 1014.6 hPa | 0 mm | - | 0 W/m² | - |
| 1777941341 | 23.89° C | 80% | 1014.7 hPa | 0 mm | - | 0 W/m² | - |
| 1777941038 | 23.89° C | 81% | 1014.6 hPa | 0 mm | - | 0 W/m² | - |
| 1777940737 | 23.89° C | 81% | 1014.6 hPa | 0 mm | - | 0 W/m² | - |
| 1777940432 | 23.33° C | 80% | 1014.5 hPa | 0 mm | - | 0 W/m² | - |
| 1777940129 | 23.33° C | 81% | 1014.4 hPa | 0 mm | - | 0 W/m² | - |
| 1777939826 | 23.33° C | 81% | 1014.3 hPa | 0 mm | - | 0 W/m² | - |
| 1777939523 | 23.33° C | 81% | 1014.3 hPa | 0 mm | - | 1 W/m² | - |
| 1777939221 | 23.33° C | 80% | 1014.3 hPa | 0 mm | - | 2 W/m² | - |
| 1777938917 | 23.33° C | 80% | 1014.1 hPa | 0 mm | - | 4 W/m² | - |
| 1777938613 | 23.89° C | 81% | 1014.2 hPa | 0 mm | - | 6 W/m² | - |
| 1777938311 | 23.89° C | 81% | 1014.2 hPa | 0 mm | - | 9 W/m² | - |
| 1777938008 | 23.89° C | 81% | 1014.2 hPa | 0 mm | - | 15 W/m² | - |
| 1777937703 | 23.89° C | 81% | 1014 hPa | 0 mm | - | 19 W/m² | - |
| 1777937400 | 23.89° C | 80% | 1013.9 hPa | 0 mm | - | 27 W/m² | - |
| 1777937097 | 23.89° C | 80% | 1014 hPa | 0 mm | - | 38 W/m² | - |
| 1777936795 | 23.89° C | 80% | 1014 hPa | 0 mm | - | 55 W/m² | - |
| 1777936491 | 23.89° C | 80% | 1014 hPa | 0 mm | - | 80 W/m² | - |
| 1777936187 | 23.89° C | 79% | 1013.8 hPa | 0 mm | - | 96 W/m² | - |
| 1777935884 | 24.44° C | 79% | 1013.7 hPa | 0 mm | - | 127 W/m² | - |
| 1777935583 | 23.89° C | 79% | 1013.9 hPa | 0 mm | - | 106 W/m² | - |
| 1777935279 | 23.89° C | 79% | 1013.9 hPa | 0 mm | - | 101 W/m² | - |
| 1777934976 | 23.89° C | 80% | 1013.9 hPa | 0 mm | - | 69 W/m² | - |
| 1777934673 | 23.89° C | 80% | 1014.1 hPa | 0 mm | - | 82 W/m² | - |
| 1777934370 | 23.89° C | 80% | 1013.9 hPa | 0 mm | - | 100 W/m² | - |
* Rain latest hour (hover to see other rain measurements)
** Current wind speed in m/s (hover to see current wind gust speed)